Regional Weather Roundup
Issued by NWS

Home | Current Version | Previous Version | Text Only | Print | Product List | Glossary On
Versions: 1 2 3 4 5 6 7 8 9 10 11 12 13 14 15 16 17 18 19 20 21 22 23 24 25 26 27 28 29 30 31 32 33 34 35 36 37 38 39 40 41 42 43 44 45 46 47 48 49 50
931
ASUS44 KJAN 292010
RWRMS

MISSISSIPPI HOURLY WEATHER ROUNDUP
NATIONAL WEATHER SERVICE JACKSON MS
300 PM CDT WED OCT 29 2014

NOTE: "FAIR: INDICATES FEW OR NO CLOUDS BELOW 12,000 FEET WITH NO
SIGNIFICANT WEATHER AND/OR OBSTRUCTIONS TO VISIBILITY.

MSZ001>002-007>008-010>013-018>021-025>028-034>036-292100-
NORTHWEST MISSISSIPPI

CITY           SKY/WX    TMP DP  RH WIND       PRES   REMARKS
CLARKSDALE     FAIR      68  45  42 N7        30.16F
CLEVELAND      FAIR      70  45  40 N7        30.14F
GREENWOOD      SUNNY     72  42  34 NE13      30.12F
GREENVILLE       N/A     71  42  35 MISG      30.13F
GRENADA        FAIR      70  37  30 N8        30.13F
OLIVE BRANCH   MOSUNNY   66  43  42 N9        30.15F
OXFORD         FAIR      68  39  34 NE10      30.15F
TUNICA         CLEAR     68  43  40 N7        30.16F
$$

MSZ003>006-009-014>017-022>024-029>033-037>039-292100-
NORTHEAST MISSISSIPPI

CITY           SKY/WX    TMP DP  RH WIND       PRES   REMARKS
COLUMBUS AFB   SUNNY     71  42  35 N14       30.10F
CORINTH        FAIR      70  36  28 N8G15     30.12F
GOLDN TRIANGLE SUNNY     72  45  37 N9G18     30.09F
STARKVILLE     FAIR      70  41  35 N8        30.11S
TUPELO         SUNNY     69  40  34 NE13      30.12F
$$

MSZ040-058-292100-
CENTRAL MISSISSIPPI

CITY           SKY/WX    TMP DP  RH WIND       PRES   REMARKS
JACKSON INTL   MOSUNNY   74  43  32 N16       30.08F
JACKSON HAWKNS SUNNY     73  45  36 N10       30.10S
MERIDIAN KEY   PTSUNNY   73  57  57 N13       30.07F
MERIDIAN NAS   CLOUDY    70  57  63 N9        30.08F
RAYMOND        FAIR      73  68  83 N6        30.10S
VICKSBURG      SUNNY     73  47  39 NE15      30.12F
$$

MSZ059>079-292100-
SOUTH MISSISSIPPI

CITY           SKY/WX    TMP DP  RH WIND       PRES   REMARKS
BROOKHAVEN     CLOUDY    70  64  83 N7        30.09S
COLUMBIA         N/A     77  66  69 MISG      30.02F
HATTIESBURG    PTSUNNY   78  65  63 N10       30.03F
MCCOMB         PTSUNNY   79  64  60 N10G21    30.04F
NATCHEZ        CLOUDY    68  61  77 N12       30.10F
PINE BELT      MOSUNNY   75  64  69 N12G17    30.05F
$$

MSZ080>082-292100-
COASTAL MISSISSIPPI

CITY           SKY/WX    TMP DP  RH WIND       PRES   REMARKS
BAY ST LOUIS   MOSUNNY   84  61  45 W5        30.01F
BILOXI         MOSUNNY   83  68  60 SW9       30.00F
PASCAGOULA     MOSUNNY   82  67  60 S6        30.00F
GULFPORT       PTSUNNY   84  63  49 W6        29.99F
$$



USA.gov is the U.S. government's official web portal to all federal, state and local government web resources and services.